Regional Weather Roundup
Issued by NWS Cleveland, OH

Home | Current Version | Previous Version | Text Only | Print | Product List | Glossary Off
Versions: 1 2 3 4 5 6 7 8 9 10 11 12 13 14 15 16 17 18 19 20 21 22 23 24 25 26 27 28 29 30 31 32 33 34 35 36 37 38 39 40 41 42 43 44 45 46 47 48 49 50

532
ASUS41 KCLE 191610
RWRCLE
OHIO REGIONAL WEATHER ROUNDUP
NATIONAL WEATHER SERVICE WILMINGTON, OH
1100 AM EST FRI JAN 19 2018

NOTE: "FAIR" INDICATES FEW OR NO CLOUDS BELOW 12,000 FEET WITH NO
SIGNIFICANT WEATHER AND/OR OBSTRUCTIONS TO VISIBILITY.

OHZ001>008-015>018-024>027-034-035-043-044-191700-
   NORTHWEST OHIO

CITY           SKY/WX    TMP DP  RH WIND       PRES   REMARKS
DEFIANCE       FAIR      27  15  61 SW15      30.01F WCI  15
FINDLAY        FAIR      29  15  56 SW14      30.03S WCI  18
TOLEDO EXPRESS FAIR      30  17  58 SW18G29   29.98F WCI  18
TOLEDO EXEC    FAIR      29  17  61 SW21G30   30.00F WCI  16
LIMA           FAIR      26  15  63 SW16      30.04S WCI  14
$$

OHZ009>014-019>023-028>033-038-089-191700-
   NORTHEAST OHIO

CITY           SKY/WX    TMP DP  RH WIND       PRES   REMARKS
CLE-HOPKINS    FAIR      30  15  53 SW15      30.06R WCI  19
CLE-LAKEFRONT  FAIR      31  15  52 S20G28    30.02S WCI  19
CUY CO. ARPT   SUNNY     32  16  51 SW12      30.02F WCI  23
LORAIN-ELYRIA  FAIR      30  13  49 SW20      30.03S WCI  17
ASHTABULA      FAIR      26  14  60 SW16      30.02F WCI  14
AKRON-CANTON   FAIR      26  13  57 SW21      30.05F WCI  12
WOOSTER        FAIR      26  14  60 SW14      30.06R WCI  14
MANSFIELD      FAIR      28  15  58 S15G24    30.04R WCI  16
YOUNGSTOWN     FAIR      27  13  55 SW12G21   30.04S WCI  17
$$

OHZ042-051>053-060>062-070>072-077>081-191700-
  SOUTHWEST OHIO

CITY           SKY/WX    TMP DP  RH WIND       PRES   REMARKS
CINC-COVINGTON FAIR      27  15  61 SW13      30.16S WCI  16
CINC-LUNKEN    FAIR      29  16  58 S10       30.21S WCI  20
HAMILTON       FAIR      32  16  51 SW10      30.17F WCI  24
DAYTON         FAIR      26  16  65 S14       30.11R WCI  14
WRIGHT-PAT AFB FAIR      28   9  45 SW14      30.12S WCI  17
DAYTON GENERAL FAIR      27  14  58 SW15      30.12S WCI  15
WILMINGTON     FAIR      26  15  63 SW16      30.12F WCI  14
$$

OHZ036-037-039>041-045>050-054>059-063>069-073>076-082>088-191700-
  CENTRAL AND SOUTHEAST OHIO

CITY           SKY/WX    TMP DP  RH WIND       PRES   REMARKS
COLUMBUS       FAIR      26  14  60 S13       30.14S WCI  15
OSU AIRPORT    FAIR      26  15  63 S14       30.11F WCI  14
BOLTON FIELD   SUNNY     27  14  59 SW15      30.13F WCI  15
RICKENBACK AFB FAIR      26  14  61 SW14      30.15S WCI  14
NEWARK         FAIR      26  13  57 SW12      30.12F WCI  16
MARION         FAIR      23  13  65 S16       30.07S WCI  10
LANCASTER      FAIR      27  13  55 S12       30.15F WCI  17
ZANESVILLE     FAIR      28  12  51 SW12      30.14F WCI  18
NEW PHILLY     FAIR      28  12  51 SW8G17    30.12F WCI  20
$$




USA.gov is the U.S. government's official web portal to all federal, state and local government web resources and services.